AirNav   Air Wisconsin pilot careers
 
 1633 users online  

X39 Tampa North Aero Park
Tampa, Florida, USA

GOING TO TAMPA?


FAA INFORMATION EFFECTIVE 19 JULY 2018

Location

FAA Identifier: X39
Lat/Long: 28-13-16.6000N / 082-22-28.4000W
28-13.276667N / 082-22.473333W
28.2212778 / -82.3745556
(estimated)
Elevation: 68 ft. / 20.7 m (surveyed)
Variation: 02W (1985)
From city: 17 miles NE of TAMPA, FL
Time zone: UTC -4 (UTC -5 during Standard Time)
Zip code: 33549

Airport Operations

Airport use: Open to the public
Activation date: 05/1970
Control tower: no
ARTCC: MIAMI CENTER
FSS: SAINT PETERSBURG FLIGHT SERVICE STATION
NOTAMs facility: PIE (NOTAM-D service available)
Attendance: 0800-1700
Wind indicator: lighted
Segmented circle: no
Lights: HIRL RY 14/32 PRESET LOW INTST DUSK-2200; TO INCR INTST OR ACTVT AFTER 2200 - CTAF.
Beacon: white-green (lighted land airport)
DUSK-2200. AFTER 2200 ACTVT ROTG BCN - CTAF.

Airport Communications

CTAF/UNICOM: 123.05
WX ASOS at ZPH (12 nm E): 118.975 (813-780-0031)
WX AWOS-3 at VDF (13 nm S): 121.125 (813-630-0924)
WX ASOS at BKV (16 nm N): 134.725 (352-799-5881)
WX ASOS at TPA (17 nm SW): PHONE 813-873-7228
WX AWOS-3 at PCM (17 nm SE): 120.025 (813-764-8259)
WX AWOS-3 at TPF (19 nm S): 118.925 (813-251-6824)

Nearby radio navigation aids

VOR radial/distance  VOR name  Freq  Var
LALr305/23.7LAKELAND VORTAC116.0001E
PIEr046/25.0ST PETERSBURG VORTAC116.4005W

 
NDB name  Hdg/Dist  Freq  Var  ID
COSME049/11.436805WTP - .--.

Airport Services

Fuel available: 100LL
Parking: hangars and tiedowns
Airframe service: MAJOR
Powerplant service: MAJOR
Bottled oxygen: LOW
Bulk oxygen: NONE

Runway Information

Runway 14/32

Dimensions: 3541 x 50 ft. / 1079 x 15 m
Surface: asphalt, in fair condition
RY 14/32 HAS A 50 FT ASPHALT CENTER WITH A 5 FT TURF EDGE ON EACH SIDE.
Runway edge lights: high intensity
RUNWAY 14  RUNWAY 32
Latitude: 28-13.501833N28-13.051667N
Longitude: 082-22.683167W082-22.262500W
Elevation: 61.6 ft.66.7 ft.
Traffic pattern: rightleft
Displaced threshold: 133 ft.108 ft.
Markings: basic, in fair conditionbasic, in fair condition
Touchdown point: yes, no lightsyes, no lights
Obstructions: 36 ft. tree, 432 ft. from runway, 125 ft. left of centerline, 12:1 slope to clear
RY 14 APCH RATIO 16:1 TO DSPLCD THLD DUE TO 36 FT TREE 432 FT FROM RY END 125 FT L OF CNTRLN.
20 ft. road, 480 ft. from runway, 14:1 slope to clear
RY 32 APPROACH SLOPE 24:1 DUE TO 48 FT POLE 1040 FT FROM RY END 60 FT R OF CNTRLN.

Airport Ownership and Management from official FAA records

Ownership: Privately-owned
Owner: HELICOPTER. STRUCTURAL & MAINT. INC
4241 BIRDSONG BLVD.
LUTZ, FL 33559
Phone 813-973-3703
CONTACT PERSON: CHARLES BRAMMER
Manager: ANGELA BRAMMER
TAMPA NORTH AERO PARK, 4241 BIRD SONG BOULEVARD
LUTZ, FL 33559
Phone 813-973-3703
FBO 813-973-3703.

Airport Operational Statistics

Aircraft based on the field: 38
Single engine airplanes: 35
Multi engine airplanes: 2
Helicopters: 1
    
Aircraft operations: avg 30/day *
91% local general aviation
9% transient general aviation
* for 12-month period ending 21 March 2017

Additional Remarks

ACFT, TREES & BLDG IN TRANSITIONAL SURFACE, BOTH SIDES OF RY 14/32.
ACFT PARKED 125 FT OF RY CNTRLN BOTH SIDES FIRST THIRD OF RY 32..

Instrument Procedures

There are no published instrument procedures at X39.

Some nearby airports with instrument procedures:

KZPH - Zephyrhills Municipal Airport (12 nm E)
KVDF - Tampa Executive Airport (13 nm S)
KBKV - Brooksville-Tampa Bay Regional Airport (16 nm N)
KTPA - Tampa International Airport (17 nm SW)
KPCM - Plant City Airport (17 nm SE)
KTPF - Peter O Knight Airport (19 nm S)
 
Loc | Ops | Rwys | IFR | FBO | Links
Com | Nav | Svcs | Stats | Notes


 
Area around X39 (Tampa North Aero Park)
 
Road maps at: MapQuest Bing Google
 
Aerial photo
WARNING: Photo may not be current or correct
Aerial photo of X39 (Tampa North Aero Park)
Photo by 601PH
Photo taken 20-Mar-2011
looking north.

Do you have a better or more recent aerial photo of Tampa North Aero Park that you would like to share? If so, please send us your photo.

 
Sectional chart

 
Airport distance calculator
Flying to Tampa North Aero Park? Find the distance to fly.

From to X39

Sunrise and sunset
Times for 14-Aug-2018
 Local
(UTC-4)
 Zulu
(UTC)
Morning civil twilight06:3510:35
Sunrise07:0011:00
Sunset20:0900:09
Evening civil twilight20:3300:33

Current date and time
Zulu (UTC)  14-Aug-2018 15:21:18
Local (UTC-4)  14-Aug-2018 11:21:18
 
METAR
KZPH 
12nm E 
141455Z AUTO 17005KT SCT027 SCT034 30/24 A3010 RMK AO2 T02950240 PWINO
KVDF 
12nm S 
141455Z AUTO 18005KT 10SM BKN026 BKN033 30/24 A3009 RMK AO2
KBKV 
15nm N 
141453Z 00000KT 10SM FEW016 FEW022 27/23 A3010 RMK AO2 SLP192 T02670228 53008
KPCM 
17nm SE 
141455Z AUTO 15005KT 10SM SCT023 30/24 A3012 RMK AO2
KTPA 
17nm SW 
141453Z VRB03KT 10SM FEW020 BKN230 29/24 A3010 RMK AO2 SLP191 T02940239 53008
KTPF 
19nm S 
141455Z AUTO 17006KT 10SM CLR 29/25 A3010 RMK AO2
TAF
KTPA 
17nm SW 
141121Z 1412/1518 14004KT P6SM FEW150 BKN250 FM141400 19006KT P6SM SCT025 BKN250 FM141700 22008KT P6SM VCTS SCT035CB SCT150 BKN250 FM150000 25005KT P6SM FEW030 BKN150 FM150200 VRB03KT P6SM SCT025 BKN200 FM151700 16004KT P6SM VCTS SCT035CB SCT150 BKN250
NOTAMs
Click for the latest NOTAMs
NOTAMs are issued by the DoD/FAA and will open in a separate window not controlled by AirNav.

 

 
 

FBO, Fuel Providers, and Aircraft Ground Support

  
 Business Name 
 
 Contact 
 
 Services / Description 
 
Fuel Prices
 
Comments
  
Tampa North Flight Center 813-973-3703
[web site]
[email]
Airport management, Aviation fuel, Aircraft parking (ramp or tiedown), Hangar leasing / sales, Pilot school (FAR Part 141), Flight training, ...

More info about Tampa North Flight Center
Phillips 66
100LL
FS $4.65 
 Updated 14-Aug-2018
 
   2 read write
FS=Full service
Update Fuel Prices
 

Would you like to see your business listed on this page?

 If your business provides an interesting product or service to pilots, flight crews, aircraft, or users of the Tampa North Aero Park, you should consider listing it here.  To start the listing process, click on the button below
 
Add a business
 

Other Pages about Tampa North Aero Park

Update a link
 
Copyright © AirNav, LLC. All rights reserved. Privacy Policy  Contact